User: anonymous   Login
Location: Unspecified
(0.0000°N, 0.0000°E)
Time: 13:31:07
(UTC+00:00)
Language:

Cosmos 1732 - Orbit

View from above orbital plane
View from above orbital plane
View from above satellite
View from above satellite

Ground track
Ground track

The orbit data is extracted from the following two-line orbital elements,

1 16593U 86015A   18115.95991171 +.00000003 +00000-0 +15229-3 0  9997
2 16593 073.6100 331.1104 0028739 007.3616 098.1012 12.41039003458830
Epoch (UTC): 25 April 2018 23:02:16
Eccentricity: 0.0028739
inclination: 73.6100°
perigee height: 1479 km
apogee height: 1525 km
right ascension of ascending node: 331.1104°
argument of perigee: 7.3616°
revolutions per day: 12.41039003
mean anomaly at epoch: 98.1012°
orbit number at epoch: 45883

The dashed part of the orbit path shows where the satellite is in the earth's shadow,  

DLR